Voltar ao catálogo

ATLAS 5 CENTAUR DEB

AtivoHEO
NORAD 44107·DEBRIS·🇺🇸 United States

Lançado Sep 17, 2014 de Cape Canaveral Space Force Station

Loading…

Próximas Passagens (próximas 24 horas)

TLE

AtualizadoSource: Space-Track

Época: Sep 13, 2026, 05:01 UTC

1 44107U 14055CC  26256.20938506 -.00000028  00000-0  00000-0 0  9996
2 44107  19.1095 182.1674 4751046  98.6460 315.8987  1.75839337 48089

Acompanhe ATLAS 5 CENTAUR DEB em tempo real com AllMySat

Download on the App Store